This site uses a module created by best online poker sites.

BSB police report ending March 5, 2018

Print
"03/02/2018","00:33","218CR0005161","WELFARE CHECK","WELFARE CHECK","3901 HARRISON WALMART","",""
"03/02/2018","01:03","218CR0005162","MEDICAL - EMERGENCY","MEDICAL - EMERGENCY","2028 CALIFORNIA","",""
"03/02/2018","02:02","218CR0005164","ALARM - BURGLARY","ALARM - BURGLARY","************","",""
"03/02/2018","02:16","218CR0005165","BURGLARY","BURGLARY","1631 SAMPSON ST","",""
"03/02/2018","02:40","218CR0005166","BUSINESS CHECK","BUSINESS CHECK","1915 DEWEY BLVD LUCKY LILS","",""
"03/02/2018","02:44","218CR0005167","BUSINESS CHECK","BUSINESS CHECK","2711 HARRISON TOWN PUMP","",""
"03/02/2018","02:54","218CR0005168","THEFT","THEFT FROM MOTOR VEHICLE","3552 S MAIN","",""
"03/02/2018","02:57","218CR0005169","T/S","BUY/POSSESS STOLEN PROPERTY","ALUMINUM AND MONTANA","ARREST(s) MADE",""
"03/02/2018","03:27","218CR0005170","ALL OTHER","ALL OTHER","BROADWAY AND ALABAMA","",""
"03/02/2018","03:40","218CR0005171","THEFT","THEFT","1000 BLK W LEXINGTON ST","",""
"03/02/2018","04:18","218CR0005172","ALARM - BURGLARY","ALARM - BURGLARY","************","",""
"03/02/2018","04:34","218CR0005173","DISTURBANCE","DISTURBANCE","1400 HARRISON MT LILS","",""
"03/02/2018","04:54","218CR0005174","WELFARE CHECK","WELFARE CHECK","1835 FLORIDA","",""
"03/02/2018","05:26","218CR0005175","TRAFFIC HAZARD","TRAFFIC HAZARD","I90 MM 232 WB","",""
"03/02/2018","06:15","218CR0005176","ALARM - BURGLARY","ALARM - BURGLARY","************","",""
"03/02/2018","06:31","218CR0005177","MEDICAL - EMERGENCY","MEDICAL - EMERGENCY","725 S DAKOTA ST","",""
"03/02/2018","07:09","218CR0005178","SUSPICIOUS ACTIVITY","SUSPICIOUS ACTIVITY","2002 CAROLINA AVE","",""
"03/02/2018","08:06","218CR0005179","SUSPICIOUS ACTIVITY","SUSPICIOUS ACTIVITY","828 W PARK","",""
"03/02/2018","08:20","218CR0005180","CIVIL PAPER SERVICE","CIVIL PAPER SERVICE","737 W PARK #2","",""
"03/02/2018","08:24","218CR0005181","CIVIL PAPER SERVICE","CIVIL PAPER SERVICE","315 S JACKSON","",""
"03/02/2018","08:25","218CR0005182","ACCIDENT","ACCIDENT","2211 GRAND AVE","",""
"03/02/2018","08:28","218CR0005183","DISTURBANCE","DISTURBANCE","735 S MAIN","",""
"03/02/2018","08:28","218CR0005184","DISTURBANCE","DISTURBANCE","","",""
"03/02/2018","08:38","218CR0005185","MEDICAL - EMERGENCY","MEDICAL - EMERGENCY","1555 HARRISON AVE","",""
"03/02/2018","08:52","218CR0005186","CIVIL PAPER SERVICE","CIVIL PAPER SERVICE","1610 OREGON AVE","",""
"03/02/2018","09:09","218CR0005187","LED BUSINESS","LED BUSINESS","155 W QUARTZ ST","",""
"03/02/2018","09:35","218CR0005188","TRAFFIC","TRAFFIC","","",""
"03/02/2018","09:39","218CR0005189","LOST OR STOLEN PROPERTY","LOST OR STOLEN PROPERTY","1819 REYNOLDS","",""
"03/02/2018","09:42","218CR0005190","LED BUSINESS","LED BUSINESS","401 S ALABAMA","",""
"03/02/2018","09:44","218CR0005191","TRAFFIC HAZARD","TRAFFIC HAZARD","1002 W GALENA","",""
"03/02/2018","09:55","218CR0005192","FIRE - STRUCTURE","FIRE - STRUCTURE","630 W QUARTZ","",""
"03/02/2018","10:03","218CR0005193","ALARM - BURGLARY","ALARM - BURGLARY","************","",""
"03/02/2018","10:11","218CR0005194","MEDICAL - EMERGENCY","MEDICAL - EMERGENCY","40 E GRANITE ST APT 3F","",""
"03/02/2018","10:33","218CR0005195","THEFT","THEFT","2115 FARRAGUT","",""
"03/02/2018","10:44","218CR0005196","DISTURBANCE","DISTURBANCE","400 S CLARK ST","",""
"03/02/2018","10:46","218CR0005197","JUVENILE MISC","JUVENILE MISC","************","",""
"03/02/2018","11:32","218CR0005210","ASSIST OTHER AGENCY","ASSIST OTHER AGENCY","1924 PHILLIPS EMERSON SCHOOL","",""
"03/02/2018","11:35","218CR0005198","SUSPICIOUS ACTIVITY","ABANDONED VEHICLE","PINION AND HARVARD","",""
"03/02/2018","11:44","218CR0005199","WELFARE CHECK","WELFARE CHECK","901 SILVER BOW HOMES","",""
"03/02/2018","12:09","218CR0005201","CITIZEN AID","CITIZEN AID","617 W IRON","",""
"03/02/2018","12:16","218CR0005202","CITIZEN AID","CITIZEN AID","1933 YALE AVE","",""
"03/02/2018","12:38","218CR0005203","VANDALISM/CRIMINAL MISCHIEF","CRIMINAL MISCHIEF","COLORADO ST AND MERCURY ST","",""
"03/02/2018","12:40","218CR0005204","CIVIL STANDBY","CIVIL STANDBY","715 ZARELDA","",""
"03/02/2018","12:53","218CR0005205","SUSPICIOUS ACTIVITY","SUSPICIOUS ACTIVITY","BEHIND KENNEDY","",""
"03/02/2018","13:05","218CR0005206","JUVENILE MISC","POSSESS ALCOHOL OR INTOXICANT","155 W GRANITE BSB COURTHOUSE","ARREST(s) MADE",""
"03/02/2018","13:19","218CR0005207","HARASSMENT","HARASSMENT","2125 HARRISON AVE","",""
"03/02/2018","13:34","218CR0005208","RESTRAINING ORDER VIOLATION","VIOLATION OF PROTECTION ORDER","117 ONEILL","",""
"03/02/2018","13:34","218CR0005209","DISTURBANCE","DISTURBANCE","121074 BROWNS GULCH RD","",""
"03/02/2018","13:42","218CR0005211","SUSPICIOUS ACTIVITY","SUSPICIOUS ACTIVITY","301 W COPPER ST","",""
"03/02/2018","13:45","218CR0005212","DISTURBANCE","DISTURBANCE","2119 JOHNS","",""
"03/02/2018","13:56","218CR0005213","CIVIL STANDBY","CIVIL STANDBY","715 ZARELDA","",""
"03/02/2018","14:11","218CR0005214","THEFT","THEFT, SHOPLIFT","3901 HARRISON AVE","",""
"03/02/2018","14:37","218CR0005215","ALL OTHER","ALL OTHER","1501 4TH ST","",""
"03/02/2018","14:43","218CR0005216","LOST OR STOLEN PROPERTY","THEFT, ALL OTHERS","814 CALEDONIA ST","",""
"03/02/2018","14:45","218CR0005217","JUVENILE MISC","POSSESSION OF TOBACCO PRODUCTS","401 S WYOMING BUTTE HIGH","",""
"03/02/2018","15:12","218CR0005218","ASSIST OTHER AGENCY","ASSIST OTHER AGENCY","1230 RACOON WAY","",""
"03/02/2018","15:20","218CR0005219","ACCIDENT","FOLLOWING TOO CLOSELY","3RD ST AND UTAH AVE","",""
"03/02/2018","15:51","218CR0005220","T/S","SPEEDING","200 BLK S ARIZONA","",""
"03/02/2018","16:02","218CR0005223","T/S","T/S","PARK AND OHIO","",""
"03/02/2018","16:02","218CR0005224","SUSPICIOUS ACTIVITY","SUSPICIOUS ACTIVITY","85 POORMANS RD","",""
"03/02/2018","16:10","218CR0005225","MEDICAL - EMERGENCY","MEDICAL - EMERGENCY","832 S COLORADO ST","",""
"03/02/2018","16:36","218CR0005226","SUSPICIOUS ACTIVITY","SUSPICIOUS ACTIVITY","610 E ALUMINUM","",""
"03/02/2018","16:39","218CR0005227","SUSPICIOUS ACTIVITY","SUSPICIOUS ACTIVITY","2310 PINE","",""
"03/02/2018","17:02","218CR0005228","T/S","T/S","BENNETT AND MAIN","",""
"03/02/2018","17:13","218CR0005229","ACCIDENT","ACCIDENT","HARRISON AND SAMPSON","",""
"03/02/2018","17:26","218CR0005230","T/S","T/S","CASEY AND UTAH","",""
"03/02/2018","17:27","218CR0005231","ACCIDENT-MHP","ACCIDENT-MHP","I15 MM 115 NB","",""
"03/02/2018","17:43","218CR0005232","DISTURBANCE","DISTURBANCE","727 S WYOMING APT B","",""
"03/02/2018","17:44","218CR0005233","T/S","STOP SIGN VIOLATION","700 BLK DEWEY BLVD","",""
"03/02/2018","18:05","218CR0005235","MEDICAL - EMERGENCY","MEDICAL - EMERGENCY","3217 BAYARD ST","",""
"03/02/2018","18:17","218CR0005236","THEFT","THEFT","1131 MISSOURI ST APT D","",""
"03/02/2018","18:22","218CR0005237","ASSIST OTHER AGENCY","ASSIST OTHER AGENCY","I15 MM 135 NB","",""
"03/02/2018","18:59","218CR0005238","WANTED PERSON","WANTED PERSON","************","",""
"03/02/2018","19:35","218CR0005239","UNKNOWN PROBLEM","UNKNOWN PROBLEM","500 BLK S IDAHO","",""
"03/02/2018","20:03","218CR0005240","BUSINESS CHECK","BUSINESS CHECK","1370 HARRISON AVE","",""
"03/02/2018","20:11","218CR0005241","WELFARE CHECK","WELFARE CHECK","3400 HILL AVE #707","",""
"03/02/2018","20:16","218CR0005243","CRIMINAL TRESPASS","CRIMINAL TRESPASS","4937 HOPE RD","",""
"03/02/2018","20:18","218CR0005242","UNKNOWN PROBLEM","UNKNOWN PROBLEM","MINAH ST AND MAIN ST","",""
"03/02/2018","20:19","218CR0005244","CITIZEN AID","CITIZEN AID","225 N ALASKA","",""
"03/02/2018","20:21","218CR0005245","T/S","T/S","PARK ST AND MAIN ST","",""
"03/02/2018","20:35","218CR0005246","WELFARE CHECK","WELFARE CHECK","640 S COLORADO ST","",""
"03/02/2018","20:42","218CR0005247","SUICIDE ATTEMPT/THREAT","SUICIDE ATTEMPT/THREAT","************","",""
"03/02/2018","20:50","218CR0005248","MEDICAL - EMERGENCY","MEDICAL - EMERGENCY","2017 MONROE","",""
"03/02/2018","21:39","218CR0005250","CIVIL STANDBY","CIVIL STANDBY","225 N ALASKA","",""
"03/02/2018","22:01","218CR0005251","ATL","ATL","300 BLK ARIZONA ST","",""
"03/02/2018","22:11","218CR0005252","T/S","T/S @ 600 BLK S MONTANA","600 BLK S MONTANA","",""
"03/02/2018","22:18","218CR0005253","PARKING COMPLAINT","PARKING COMPLAINT","623 W GRANITE","",""
"03/02/2018","22:26","218CR0005254","DISTURBANCE","DISTURBANCE","321 N JACKSON #B","",""
"03/02/2018","22:31","218CR0005256","SUSPICIOUS ACTIVITY","BUY/POSSESS STOLEN PROPERTY","1816 TEXAS","ARREST(s) MADE",""
"03/02/2018","22:32","218CR0005255","ALL OTHER","ALL OTHER","400 S CLARK ST","",""
"03/02/2018","22:48","218CR0005258","ATL","ATL","609 W GALENA","",""
"03/02/2018","22:48","218CR0005257","UNWANTED PERSON","UNWANTED PERSON","************","",""
"03/02/2018","23:06","218CR0005259","UNWANTED PERSON","UNWANTED PERSON","************","",""
"03/02/2018","23:17","218CR0005260","DISTURBANCE-NOISE","DISTURBANCE-NOISE","635 W GRANITE","",""
"03/02/2018","23:23","218CR0005261","DISTURBANCE","DISTURBANCE","2 E GALENA TIMES","",""
"03/02/2018","23:24","218CR0005262","UNKNOWN PROBLEM","UNKNOWN PROBLEM","635 W PARK ST","",""
"03/02/2018","23:35","218CR0005263","MEDICAL - EMERGENCY","MEDICAL - EMERGENCY","1700 HARRISON","",""
"03/02/2018","23:37","218CR0005264","WELFARE CHECK","WELFARE CHECK","1029 NEVADA AVE","",""
"03/02/2018","23:46","218CR0005265","DISTURBANCE","DISTURBANCE","600 BLK PLACER ST","",""
"03/03/2018","00:01","218CR0005266","ALARM - BURGLARY","ALARM - BURGLARY","************","",""
"03/03/2018","00:12","218CR0005267","SUSPICIOUS ACTIVITY","SUSPICIOUS ACTIVITY","2500 BLK HARRISON AV","",""
"03/03/2018","00:18","218CR0005268","T/S","T/S","MAIN AND PACIFIC","",""
"03/03/2018","00:26","218CR0005269","MEDICAL - EMERGENCY","MEDICAL - EMERGENCY","630 1/2 W GRANITE ST","",""
"03/03/2018","00:33","218CR0005270","T/S","T/S","1400 BLK HARRISON AV","",""
"03/03/2018","00:38","218CR0005272","DISTURBANCE-NOISE","DISTURBANCE-NOISE","60 E BROADWAY ACOMA LOUNGE","",""
"03/03/2018","00:38","218CR0005271","T/S","T/S @ GARFIELD ST AND ARGYLE ST","GARFIELD ST AND ARGYLE ST","",""
"03/03/2018","00:44","218CR0005273","T/S","T/S","IRON ST AND MAIN ST","",""
"03/03/2018","01:02","218CR0005274","SUSPICIOUS ACTIVITY","SUSPICIOUS ACTIVITY","CIVIC CENTER N PARKING LOT","",""
"03/03/2018","01:11","218CR0005275","DISTURBANCE","DISTURBANCE","1324 HARRISON AVE BUS DEPOT","",""
"03/03/2018","01:19","218CR0005276","DISTURBANCE","DISTURBANCE","ELIZABETH WARREN AND HOWARD","",""
"03/03/2018","01:26","218CR0005277","SUSPICIOUS ACTIVITY","SUSPICIOUS ACTIVITY","S HARRISON AT THE WALKING TRAI","",""
"03/03/2018","01:50","218CR0005279","INTOXICATED PERSON","INTOXICATED PERSON","531 S MONTANA LUCKY LILS CASIN","",""
"03/03/2018","02:02","218CR0005280","DISTURBANCE","DISTURBANCE","2 E GALENA THE TIMES","",""
"03/03/2018","02:09","218CR0005281","T/S","POSSESSION OF DANGEROUS DRUGS","QUARTZ AND MAIN","ARREST(s) MADE",""
"03/03/2018","02:15","218CR0005282","T/S","DUI DRUGS OR ALCOHOL","WHITMAN AND COBBAN","ARREST(s) MADE",""
"03/03/2018","03:04","218CR0005283","SUSPICIOUS ACTIVITY","SUSPICIOUS ACTIVITY","220 N WYOMING MOTEL 6","",""
"03/03/2018","07:46","218CR0005284","TRAFFIC HAZARD","TRAFFIC HAZARD","762 ELKHORN LANE","",""
"03/03/2018","07:54","218CR0005285","T/S","T/S","ARIZONA AND BROADWAY","",""
"03/03/2018","08:02","218CR0005286","DISTURBANCE","DISTURBANCE","100 GARDENS WY #104","",""
"03/03/2018","08:28","218CR0005289","CIVIL PAPER SERVICE","CIVIL PAPER SERVICE","1819 FLORIDA","",""
"03/03/2018","08:38","218CR0005290","CIVIL PAPER SERVICE","CIVIL PAPER SERVICE","2720 PINE","",""
"03/03/2018","08:50","218CR0005291","CIVIL PAPER SERVICE","CIVIL PAPER SERVICE","3025 EAGLE ST","",""
"03/03/2018","08:53","218CR0005292","UNWANTED PERSON","UNWANTED PERSON","************","",""
"03/03/2018","09:05","218CR0005294","ABANDONED VEHICLE","ABANDONED VEHICLE","3554 SADDLEROCK RD","",""
"03/03/2018","09:14","218CR0005295","ATL","ATL","3100 BLK HARRISON AVE","",""
"03/03/2018","09:26","218CR0005296","ACCIDENT-MHP","ACCIDENT-MHP","I15 MM 115 NB","",""
"03/03/2018","09:26","218CR0005297","ALARM - FIRE","ALARM - FIRE","2609 HARRISON AVE","",""
"03/03/2018","09:32","218CR0005298","THEFT","THEFT","330 W DALY","",""
"03/03/2018","09:37","218CR0005299","ABANDONED VEHICLE","ABANDONED VEHICLE","3900 SADDLE ROCK RD","",""
"03/03/2018","10:32","218CR0005300","LOST OR STOLEN PROPERTY","LOST OR STOLEN PROPERTY","2400 CONTINENTAL DR","",""
"03/03/2018","10:50","218CR0005301","CITIZEN AID","CITIZEN AID","400 S CLARK ST","",""
"03/03/2018","11:07","218CR0005302","FIRE - OTHER","FIRE - OTHER","200 TECHNOLOGY WAY","",""
"03/03/2018","11:21","218CR0005303","CITIZEN AID","CITIZEN AID","313 W QUARTZ ST","",""
"03/03/2018","11:42","218CR0005304","FIRE- GAS ODOR","FIRE- GAS ODOR","55 BASIN CREEK RD","",""
"03/03/2018","12:31","218CR0005305","FRAUD","THEFT, ALL OTHERS","909 DELAWARE","",""
"03/03/2018","12:34","218CR0005306","MISSING PERSON","MISSING PERSON","************","",""
"03/03/2018","12:55","218CR0005307","ASSAULT","ASSAULT","************","",""
"03/03/2018","12:58","218CR0005308","CITIZEN AID","CITIZEN AID","400 S CLARK ST","",""
"03/03/2018","13:13","218CR0005309","ANIMAL COMPLAINT","ANIMAL COMPLAINT","I15 MM 123 WB","",""
"03/03/2018","13:16","218CR0005310","MEDICAL - EMERGENCY","MEDICAL - EMERGENCY","BROADWAY AND MONTANA","",""
"03/03/2018","13:27","218CR0005311","SUSPICIOUS ACTIVITY","SUSPICIOUS ACTIVITY","1301 HARRISON STOKES MARKET","",""
"03/03/2018","13:52","218CR0005312","TRAFFIC","TRAFFIC","","",""
"03/03/2018","14:05","218CR0005313","ALL OTHER","ALL OTHER","400 S CLARK ST","",""
"03/03/2018","14:06","218CR0005314","CRIMINAL TRESPASS","CRIMINAL TRESPASS","1641 GRAND AVE","",""
"03/03/2018","14:27","218CR0005315","ABANDONED VEHICLE","ABANDONED VEHICLE","5100 WARREN AVE #70","",""
"03/03/2018","15:15","218CR0005316","WELFARE CHECK","WELFARE CHECK","104 GARDENS WAY","",""
"03/03/2018","15:17","218CR0005317","ALL OTHER","ALL OTHER","1630 B STREET","",""
"03/03/2018","15:30","218CR0005318","MEDICAL - EMERGENCY","MEDICAL - EMERGENCY","304 HATTIE LOOP","",""
"03/03/2018","15:41","218CR0005319","T/S","CRIMINAL CONTEMPT","3131 HARRISON","ARREST(s) MADE",""
"03/03/2018","15:48","218CR0005320","T/S","T/S","1315 S MONTANA RED ZONE","",""
"03/03/2018","15:56","218CR0005321","MEDICAL - EMERGENCY","MEDICAL - EMERGENCY","140 SWEET MEADOWS ROAD","",""
"03/03/2018","16:21","218CR0005322","PARKING COMPLAINT","PARKING COMPLAINT","820 DEWEY BLVD","",""
"03/03/2018","16:48","218CR0005323","CIVIL PAPER SERVICE","CIVIL PAPER SERVICE","3220 HANNIBAL ST","",""
"03/03/2018","17:18","218CR0005324","ATL","ATL","3110 ARGYLE","",""
"03/03/2018","17:44","218CR0005325","ALL OTHER","ALL OTHER","4655 HARRISON AVE","",""
"03/03/2018","17:49","218CR0005326","SUSPICIOUS ACTIVITY","SUSPICIOUS ACTIVITY","425 E FRONT STREET","",""
"03/03/2018","18:17","218CR0005328","MEDICAL - EMERGENCY","MEDICAL - EMERGENCY","207 W PARK ST","",""
"03/03/2018","18:18","218CR0005329","INTIMIDATION","INTIMIDATION","1042 NEVADA","",""
"03/03/2018","18:40","218CR0005330","BUSINESS CHECK","BUSINESS CHECK","10 BLK W PARK","",""
"03/03/2018","18:52","218CR0005331","T/S","T/S","DELAWARE AVE AND FRONT ST","",""
"03/03/2018","19:05","218CR0005332","ATL","ATL","ELIZABETH WARREN MT HIGHLAND","",""
"03/03/2018","19:15","218CR0005333","SUSPICIOUS ACTIVITY","SUSPICIOUS ACTIVITY","1129 W GRANITE ST","",""
"03/03/2018","19:31","218CR0005334","WELFARE CHECK","WELFARE CHECK","935 W BROADWAY","",""
"03/03/2018","21:06","218CR0005335","UNWANTED PERSON","UNWANTED PERSON","************","",""
"03/03/2018","21:46","218CR0005336","DISTURBANCE","DISTURBANCE","224 W PARK ST","",""
"03/03/2018","22:09","218CR0005337","ASSIST OTHER AGENCY","ASSIST OTHER AGENCY","HARRISON AND PRINCETON","",""
"03/03/2018","22:13","218CR0005338","DISTURBANCE","DISTURBANCE","2317 ELM","",""
"03/03/2018","22:19","218CR0005339","T/S","T/S @ PARK AND EXCLESIOR","PARK AND EXCLESIOR","",""
"03/03/2018","22:23","218CR0005340","BUSINESS CHECK","BUSINESS CHECK","531 S MONTANA ST","",""
"03/03/2018","22:24","218CR0005341","T/S","T/S","GRAND AND CAROLINA","",""
"03/03/2018","22:25","218CR0005342","DISTURBANCE","DISTURBANCE","60 E BROADWAY ACOMA LOUNGE","",""
"03/03/2018","22:47","218CR0005343","ATL","ATL","HOLMES AND ROWE RD","",""
"03/03/2018","22:53","218CR0005344","MEDICAL - EMERGENCY","MEDICAL - EMERGENCY","176 TRINITY LOOP","",""
"03/03/2018","22:54","218CR0005345","T/S","T/S","COLUSA AND DEWEY","",""
"03/03/2018","23:08","218CR0005346","CITIZEN AID","CITIZEN AID","PLATINUM AND EXCELSIOR","",""
"03/03/2018","23:30","218CR0005347","T/S","T/S","FLORENCE AND ARGYLE","",""
"03/03/2018","23:57","218CR0005348","ASSIST OTHER AGENCY","POSSESSION OF DANGEROUS DRUGS","1911 THORNTON","ARREST(s) MADE",""
"03/03/2018","23:59","218CR0005349","ATL","ATL","2900 BLK HARRISON","",""
"03/04/2018","00:06","218CR0005351","PROWLER","PROWLER","1805 B ST","",""
"03/04/2018","00:28","218CR0005352","T/S","T/S","2100 CORNELL QUALITY INN","",""
"03/04/2018","00:36","218CR0005353","FIRE- GAS ODOR","FIRE- GAS ODOR","200 TECHNOLOGY WAY/MSE","",""
"03/04/2018","00:37","218CR0005354","ASSIST OTHER AGENCY","POSSESSION OF DANGEROUS DRUGS","16 W GALENA","ARREST(s) MADE",""
"03/04/2018","00:42","218CR0005355","ACCIDENT- INJURY(MHP)","ACCIDENT- INJURY(MHP)","I90 MM 211 EB","",""
"03/04/2018","01:26","218CR0005356","WELFARE CHECK","WELFARE CHECK","400 BLK E BROADWAY","",""
"03/04/2018","01:55","218CR0005357","STOLEN VEHICLE","STOLEN VEHICLE","100 E BROADWAY ST","",""
"03/04/2018","02:07","218CR0005358","ALL OTHER","ALL OTHER","1 W PARK","",""
"03/04/2018","02:08","218CR0005359","UNWANTED PERSON","POSSESSION OF DANGEROUS DRUGS","2100 CORNELL QUALITY INN","ARREST(s) MADE",""
"03/04/2018","02:10","218CR0005360","MEDICAL - EMERGENCY","MEDICAL - EMERGENCY","IDAHO AND PARK","",""
"03/04/2018","02:26","218CR0005361","ALL OTHER","ALL OTHER","1941 OREGON","",""
"03/04/2018","03:09","218CR0005362","ASSIST OTHER AGENCY","ASSIST OTHER AGENCY","GRAND AND THOMAS","",""
"03/04/2018","03:17","218CR0005363","LOST OR STOLEN PROPERTY","LOST OR STOLEN PROPERTY","1124 IOWA","",""
"03/04/2018","03:28","218CR0005364","T/S","CRIMINAL CONTEMPT","2000 BLK HARRISON AVE","ARREST(s) MADE",""
"03/04/2018","04:24","218CR0005365","DRUGS","DRUGS","************","",""
"03/04/2018","04:44","218CR0005366","HARASSMENT","HARASSMENT","2126 PHILLIPS AVE","",""
"03/04/2018","05:24","218CR0005367","MEDICAL - EMERGENCY","MEDICAL - EMERGENCY","2310 COBBAN BSW THRIFT STORE","",""
"03/04/2018","05:36","218CR0005368","UNKNOWN PROBLEM","UNKNOWN PROBLEM","1325 W QUARTZ HILLTOP APTS","",""
"03/04/2018","06:12","218CR0005369","ALARM - BURGLARY","ALARM - BURGLARY","************","",""
"03/04/2018","07:44","218CR0005370","ASSIST OTHER AGENCY","ASSIST OTHER AGENCY","I15 MM130 N BND","",""
"03/04/2018","07:57","218CR0005371","SUSPICIOUS ACTIVITY","SUSPICIOUS ACTIVITY","1042 W PARK","",""
"03/04/2018","08:31","218CR0005372","MEDICAL - EMERGENCY","MEDICAL - EMERGENCY","212 SILVERBOW HOMES","",""
"03/04/2018","10:35","218CR0005373","SUSPICIOUS ACTIVITY","SUSPICIOUS ACTIVITY","12 LAIRD ST","",""
"03/04/2018","10:57","218CR0005374","MEDICAL - EMERGENCY","MEDICAL - EMERGENCY","721 HOBSON APT 4","",""
"03/04/2018","11:30","218CR0005375","HARASSMENT","HARASSMENT","846 S MAIN ST","",""
"03/04/2018","11:53","218CR0005376","UNWANTED PERSON","UNWANTED PERSON","************","",""
"03/04/2018","12:18","218CR0005377","ACCIDENT","ACCIDENT","I15 MM 99 SB","",""
"03/04/2018","12:40","218CR0005378","CITIZEN AID","CITIZEN AID","1326 MISSOURI AVE","",""
"03/04/2018","12:46","218CR0005379","JUVENILE MISC","JUVENILE MISC","************","",""
"03/04/2018","12:56","218CR0005380","THEFT","THEFT","810 1/2 W MERCURY","",""
"03/04/2018","13:16","218CR0005381","WELFARE CHECK","WELFARE CHECK","100 BLK E GALENA","",""
"03/04/2018","13:33","218CR0005382","THEFT","THEFT","3901 HARRISON AVE","",""
"03/04/2018","13:35","218CR0005383","ALL OTHER","ALL OTHER","436 S MAIN ST APT A","",""
"03/04/2018","13:51","218CR0005384","THEFT","THEFT, SHOPLIFT","3901 HARRISON AVE","",""
"03/04/2018","13:51","218CR0005385","SUICIDE ATTEMPT/THREAT","ASSAULT PEACE OFFC -  NO INJ","1152 W SILVER","ARREST(s) MADE",""
"03/04/2018","14:24","218CR0005386","ATL","ATL","PLATINUM AND MONTANA","",""
"03/04/2018","14:36","218CR0005387","THEFT","POSSESSION OF DANGEROUS DRUGS","3901 HARRISON AVE","ARREST(s) MADE",""
"03/04/2018","14:55","218CR0005388","T/S","T/S","3541 HARRISON AVE","",""
"03/04/2018","15:33","218CR0005389","THEFT","THEFT","520 HOLMES","",""
"03/04/2018","15:36","218CR0005390","FRAUD","FRAUD","229 S WASHINGTON","",""
"03/04/2018","16:10","218CR0005391","THEFT","THEFT, SHOPLIFT","3901 HARRISON AVE","",""
"03/04/2018","17:01","218CR0005392","MEDICAL - EMERGENCY","MEDICAL - EMERGENCY","105 RAMPART DR APT 106","",""
"03/04/2018","17:05","218CR0005393","BUSINESS CHECK","BUSINESS CHECK","1370 HARRISON AVE","",""
"03/04/2018","17:07","218CR0005394","ACCIDENT","ACCIDENT","I90 MM 228 WB","",""
"03/04/2018","17:44","218CR0005395","MEDICAL - EMERGENCY","MEDICAL - EMERGENCY","50 W BROADWAY ST","",""
"03/04/2018","18:08","218CR0005396","ASSIST OTHER AGENCY","ASSIST OTHER AGENCY","I90 MM 213 W BND","",""
"03/04/2018","18:10","218CR0005397","MEDICAL - EMERGENCY","MEDICAL - EMERGENCY","100 GARDENS WAY #101","",""
"03/04/2018","19:07","218CR0005398","PARKING COMPLAINT","PARKING COMPLAINT","217 W PARK ST","",""
"03/04/2018","19:09","218CR0005399","ACCIDENT","ACCIDENT","2905 HARRISON AVE","",""
"03/04/2018","19:36","218CR0005400","LOST OR STOLEN PROPERTY","THEFT FROM BUILDINGS","2540 FLORAL BLVD","",""
"03/04/2018","19:50","218CR0005401","UNWANTED PERSON","FAILURE TO DISPERSE","1203 HOWARD","ARREST(s) MADE",""
"03/04/2018","19:55","218CR0005402","FIRE - OTHER","FIRE - OTHER","118 N ALABAMA","",""
"03/04/2018","21:19","218CR0005403","T/S","T/S","GEORGE ST AND MONTANA ST","",""
"03/04/2018","21:52","218CR0005404","SUSPICIOUS ACTIVITY","BURGLARY, RESIDENCE","2010 GARRISON AVE","",""
"03/04/2018","22:28","218CR0005405","T/S","T/S","COBBAN AND ARIZONA","",""
"03/04/2018","22:51","218CR0005406","OPEN BUILDING","OPEN BUILDING","2012 HARVARD","",""
"03/04/2018","23:03","218CR0005407","BUSINESS CHECK","BUSINESS CHECK","2711 HARRISON","",""
"03/04/2018","23:05","218CR0005408","BUSINESS CHECK","BUSINESS CHECK","1370 HARRISON","",""
"03/04/2018","23:09","218CR0005409","BUSINESS CHECK","BUSINESS CHECK","1915 DEWEY LUCKY LILS CASINO","",""
"03/04/2018","23:10","218CR0005410","BUSINESS CHECK","BUSINESS CHECK","2000 DEWEY BLVD DOTTYS CASINO","",""
"03/04/2018","23:15","218CR0005411","BUSINESS CHECK","BUSINESS CHECK","LUCKY LOGGERS","",""
"03/04/2018","23:17","218CR0005412","HARASSMENT","HARASSMENT","2315 WALNUT","",""
"03/04/2018","23:47","218CR0005413","DISTURBANCE","DISTURBANCE","60 E BROADWAY ACOMA LOUNGE","",""
"03/04/2018","23:50","218CR0005414","ALARM - BURGLARY","ALARM - BURGLARY","************","",""
"03/05/2018","00:15","218CR0005415","DISTURBANCE","PFMA - REASONABLE APPREHENSION","5 LAIRD ST","ARREST(s) MADE",""
"03/05/2018","01:29","218CR0005416","MEDICAL - EMERGENCY","MEDICAL - EMERGENCY","2121 LOCUST","",""
"03/05/2018","02:31","218CR0005417","DISTURBANCE","DISTURBANCE","936 IOWA","",""
"03/05/2018","02:34","218CR0005418","SUSPICIOUS ACTIVITY","SUSPICIOUS ACTIVITY","2929 HARRISON SUPER 8 MOTEL","",""
"03/05/2018","03:37","218CR0005419","MEDICAL - EMERGENCY","MEDICAL - EMERGENCY","2900 ELM BEE HIVE HOMES","",""
"03/05/2018","03:51","218CR0005420","DISTURBANCE-NOISE","DISTURBANCE-NOISE","614 W PARK","",""
"03/05/2018","03:55","218CR0005421","MEDICAL - EMERGENCY","MEDICAL - EMERGENCY","25 W ALUMINUM","",""
"03/05/2018","04:05","218CR0005422","DISTURBANCE-NOISE","DISTURBANCE-NOISE","100 BLK W GRANITE S ALLEY","",""
"03/05/2018","05:51","218CR0005423","T/S","T/S @ I 90 W BOUND WEIGHT STATION","I 90 W BOUND WEIGHT STATION","",""
"03/05/2018","07:39","218CR0005424","T/S","T/S @ ","","",""
"03/05/2018","07:39","218CR0005425","T/S","T/S @ PARK AND MONTANA","PARK AND MONTANA","",""
 
Monday the 24th. Affiliate Marketing.
Copyright 2012

©